Lawrence, KS

7:01 PM CST on December 02, 2016 (GMT -0600)
Lawrence Municipal

Weather History for KLWC - February, 2014

Change the Weather History Date:

Friday, February 14, 2014

  Actual Average Record
Temperature  
Mean Temperature 28 °F 34 °F  
Max Temperature 42 °F 45 °F 66 °F (2005)
Min Temperature 13 °F 23 °F 3 °F (2007)
Degree Days  
Heating Degree Days 37 31  
Month to date heating degree days 673 460  
Since 1 July heating degree days 4016 3611  
Cooling Degree Days 0 0  
Month to date cooling degree days 0 0  
Year to date cooling degree days 0 0  
Moisture  
Dew Point 22 °F    
Average Humidity 78    
Maximum Humidity 92    
Minimum Humidity 63    
Precipitation  
Precipitation T in 0.04 in 0.57 in (2003)
Month to date precipitation 0.25 0.67  
Year to date precipitation 0.33 1.68  
Sea Level Pressure  
Sea Level Pressure 29.93 in    
Wind  
Wind Speed 11 mph (NNW)    
Max Wind Speed 30 mph    
Max Gust Speed 35 mph    
Visibility 9 miles    
Events      
T = Trace of Precipitation, MM = Missing Value Source: NWS Daily Summary

Daily Weather History Graph

Daily Weather History Graph

Search for Another Location

Airport or City:

Trip Planner

Search our weather history database for the weather conditions in past years. The results will help you decide how hot, cold, wet, or windy it might be!

Date:

Astronomy

Feb. 14, 2014 Rise Set
Actual Time 7:13 AM CST 5:57 PM CST
Civil Twilight 6:46 AM CST 6:24 PM CST
Nautical Twilight 6:14 AM CST 6:55 PM CST
Astronomical Twilight 5:43 AM CST 7:26 PM CST
Moon 6:01 PM CST (2/14) 6:41 AM CST (2/14)
Length of Visible Light 11h 38m
Length of Day
10h 43m
Full, 100% of the Moon is Illuminated
Feb 14
Full
Feb 14
Full
Feb 22
Last Quarter
Mar 1
New
Mar 8
First Quarter

Hourly Weather History & Observations

Time (CST) Temp. Windchill Dew Point Humidity Pressure Visibility Wind Dir Wind Speed Gust Speed Precip Events Conditions
12:52 AM 30.9 °F - 27.0 °F 85% 29.73 in 7.0 mi Calm Calm - 0.00 in   Overcast
1:52 AM 33.1 °F 28.7 °F 30.0 °F 89% 29.69 in 7.0 mi ESE 4.6 mph - 0.00 in   Overcast
2:52 AM 32.0 °F 25.6 °F 28.9 °F 88% 29.64 in 6.0 mi SE 6.9 mph - N/A   Mostly Cloudy
3:52 AM 32.0 °F 28.7 °F 28.0 °F 85% 29.60 in 7.0 mi SSE 3.5 mph - N/A   Clear
4:52 AM 35.1 °F 30.1 °F 28.9 °F 78% 29.62 in 9.0 mi WNW 5.8 mph - N/A   Clear
5:52 AM 39.9 °F 32.5 °F 32.0 °F 73% 29.62 in 10.0 mi WNW 12.7 mph - N/A   Clear
6:52 AM 39.0 °F 29.9 °F 30.9 °F 73% 29.69 in 10.0 mi NW 17.3 mph - N/A   Clear
7:52 AM 34.0 °F 20.8 °F 28.0 °F 79% 29.77 in 10.0 mi NNW 27.6 mph 31.1 mph N/A   Clear
8:52 AM 30.9 °F 19.4 °F 25.0 °F 79% 29.84 in 9.0 mi NNW 17.3 mph 27.6 mph N/A   Mostly Cloudy
9:52 AM 32.0 °F 21.6 °F 25.0 °F 75% 29.88 in 6.0 mi NNW 15.0 mph 25.3 mph N/A   Haze
10:52 AM 30.9 °F 18.4 °F 25.0 °F 79% 29.94 in 10.0 mi NNW 20.7 mph 27.6 mph N/A   Overcast
11:47 AM 30.2 °F 17.4 °F 23.0 °F 75% 29.96 in 10.0 mi NNW 20.7 mph 26.5 mph N/A   Overcast
11:52 AM 30.9 °F 19.4 °F 23.0 °F 72% 29.99 in 10.0 mi NNW 17.3 mph 26.5 mph N/A   Overcast
12:52 PM 30.0 °F 17.5 °F 21.0 °F 69% 30.01 in 10.0 mi North 19.6 mph - N/A   Overcast
1:52 PM 30.9 °F 18.4 °F 21.9 °F 69% 30.01 in 10.0 mi NNW 20.7 mph 29.9 mph N/A   Overcast
2:07 PM 32.0 °F 20.5 °F 21.0 °F 64% 29.99 in 10.0 mi NNW 18.4 mph 26.5 mph N/A   Overcast
2:52 PM 32.0 °F 20.1 °F 21.0 °F 64% 30.03 in 10.0 mi NNW 19.6 mph - N/A   Partly Cloudy
3:52 PM 32.0 °F 22.1 °F 21.0 °F 64% 30.06 in 10.0 mi NNW 13.8 mph 25.3 mph N/A   Partly Cloudy
4:52 PM 30.9 °F 19.8 °F 21.0 °F 67% 30.08 in 10.0 mi North 16.1 mph - N/A   Clear
5:52 PM 28.0 °F 17.5 °F 19.0 °F 69% 30.10 in 10.0 mi North 12.7 mph - N/A   Clear
6:52 PM 24.1 °F 16.0 °F 17.1 °F 75% 30.13 in 10.0 mi NNW 6.9 mph - N/A   Clear
7:52 PM 21.9 °F - 16.0 °F 78% 30.12 in 9.0 mi Calm Calm - N/A   Clear
8:52 PM 16.0 °F 10.4 °F 12.9 °F 88% 30.15 in 7.0 mi North 3.5 mph - N/A   Clear
9:52 PM 16.0 °F - 10.9 °F 81% 30.17 in 8.0 mi Calm Calm - N/A   Clear
10:52 PM 14.0 °F 8.2 °F 10.0 °F 84% 30.16 in 6.0 mi NE 3.5 mph - N/A   Clear
11:52 PM 12.9 °F 3.8 °F 9.0 °F 84% 30.14 in 6.0 mi East 5.8 mph - N/A   Clear